| time (UTC) | temp C | wind direction | speed KPH | gust KPH | rain 1hr cm | rain 24hr cm | rain mn cm | humidity % | barometer mb |
| 20260510094524 | 11 | 70 | 1.6 | 11.3 | 0.00 | 0.03 | 0.03 | 88 | 1031.0 |
| 20260510093119 | 11 | 66 | 0.0 | 4.8 | 0.00 | 0.03 | 0.03 | 88 | 1030.9 |
| 20260510091508 | 11 | 58 | 1.6 | 8.0 | 0.00 | 0.03 | 0.03 | 86 | 1030.7 |
| 20260510090049 | 11 | 2 | 0.0 | 6.4 | 0.00 | 0.03 | 0.03 | 85 | 1030.5 |
| 20260510084509 | 11 | 48 | 0.0 | 1.6 | 0.00 | 0.03 | 0.03 | 86 | 1030.3 |
| 20260510083106 | 11 | 56 | 0.0 | 3.2 | 0.00 | 0.03 | 0.03 | 84 | 1030.1 |
| 20260510081509 | 12 | 78 | 0.0 | 4.8 | 0.00 | 0.03 | 0.03 | 84 | 1029.9 |
| 20260510080057 | 12 | 95 | 3.2 | 8.0 | 0.00 | 0.03 | 0.03 | 83 | 1029.7 |
| 20260510074523 | 12 | 95 | 4.8 | 14.5 | 0.00 | 0.03 | 0.03 | 82 | 1029.7 |
| 20260510073019 | 13 | 86 | 3.2 | 6.4 | 0.00 | 0.03 | 0.03 | 81 | 1029.4 |
| 20260510071536 | 13 | 95 | 4.8 | 12.9 | 0.00 | 0.03 | 0.03 | 79 | 1029.2 |
| 20260510070016 | 13 | 82 | 4.8 | 8.0 | 0.00 | 0.03 | 0.03 | 77 | 1029.1 |
| 20260510064534 | 14 | 92 | 4.8 | 11.3 | 0.00 | 0.03 | 0.03 | 75 | 1028.6 |
| 20260510063027 | 15 | 78 | 3.2 | 12.9 | 0.00 | 0.03 | 0.03 | 72 | 1028.5 |
| 20260510061538 | 15 | 102 | 6.4 | 11.3 | 0.00 | 0.03 | 0.03 | 70 | 1028.3 |
| 20260510060036 | 16 | 88 | 3.2 | 9.7 | 0.00 | 0.03 | 0.03 | 70 | 1028.2 |
| 20260510054545 | 16 | 96 | 3.2 | 11.3 | 0.00 | 0.03 | 0.03 | 69 | 1027.9 |
| 20260510053030 | 16 | 71 | 3.2 | 12.9 | 0.00 | 0.03 | 0.03 | 70 | 1027.8 |
| 20260510051547 | 16 | 75 | 6.4 | 14.5 | 0.00 | 0.03 | 0.03 | 67 | 1027.6 |
| 20260510050031 | 16 | 52 | 8.0 | 16.1 | 0.00 | 0.03 | 0.03 | 68 | 1027.5 |
| 20260510044548 | 17 | 75 | 3.2 | 11.3 | 0.00 | 0.03 | 0.03 | 67 | 1027.5 |
| 20260510043034 | 16 | 80 | 6.4 | 12.9 | 0.00 | 0.03 | 0.03 | 66 | 1027.5 |
| 20260510041556 | 16 | 144 | 6.4 | 11.3 | 0.00 | 0.03 | 0.03 | 67 | 1027.5 |
| 20260510040050 | 17 | 116 | 4.8 | 11.3 | 0.00 | 0.03 | 0.03 | 68 | 1027.5 |
| 20260510034518 | 17 | 83 | 6.4 | 14.5 | 0.00 | 0.03 | 0.03 | 66 | 1027.5 |
| 20260510033058 | 16 | 73 | 6.4 | 12.9 | 0.00 | 0.03 | 0.03 | 67 | 1027.5 |
| 20260510031600 | 16 | 37 | 3.2 | 11.3 | 0.00 | 0.03 | 0.03 | 67 | 1027.7 |
| 20260510030051 | 16 | 154 | 6.4 | 12.9 | 0.00 | 0.03 | 0.03 | 68 | 1027.7 |
| 20260510024557 | 16 | 177 | 1.6 | 11.3 | 0.00 | 0.03 | 0.03 | 70 | 1027.8 |
| 20260510023042 | 16 | 141 | 6.4 | 11.3 | 0.00 | 0.03 | 0.03 | 69 | 1028.0 |
| 20260510021600 | 16 | 127 | 9.7 | 16.1 | 0.00 | 0.03 | 0.03 | 70 | 1028.3 |
| 20260510020032 | 15 | 111 | 3.2 | 12.9 | 0.00 | 0.03 | 0.03 | 73 | 1028.4 |
| 20260510014548 | 15 | 132 | 1.6 | 9.7 | 0.00 | 0.03 | 0.03 | 74 | 1028.7 |
| 20260510013025 | 14 | 136 | 3.2 | 11.3 | 0.00 | 0.03 | 0.03 | 74 | 1028.9 |
| 20260510011532 | 13 | 247 | 1.6 | 9.7 | 0.00 | 0.03 | 0.03 | 76 | 1029.0 |
| 20260510010012 | 13 | 147 | 3.2 | 9.7 | 0.00 | 0.03 | 0.03 | 78 | 1029.3 |
| 20260510004509 | 12 | 139 | 4.8 | 11.3 | 0.00 | 0.03 | 0.03 | 79 | 1029.4 |
| 20260510003043 | 12 | 182 | 3.2 | 9.7 | 0.00 | 0.03 | 0.03 | 81 | 1029.6 |
| 20260510001552 | 11 | 211 | 3.2 | 8.0 | 0.00 | 0.03 | 0.03 | 87 | 1029.6 |
| 20260510000027 | 11 | 130 | 4.8 | 11.3 | 0.00 | 0.03 | 0.03 | 92 | 1029.6 |
| 20260509234538 | 9 | 239 | 1.6 | 6.4 | 0.00 | 0.03 | 0.03 | 96 | 1029.6 |
| 20260509233010 | 8 | 298 | 0.0 | 1.6 | 0.00 | 0.03 | 0.03 | 97 | 1029.5 |
| 20260509231514 | 7 | 278 | 0.0 | 1.6 | 0.00 | 0.03 | 0.03 | 98 | 1029.5 |
| 20260509230052 | 6 | 276 | 0.0 | 3.2 | 0.00 | 0.03 | 0.03 | 97 | 1029.5 |
| 20260509224602 | 6 | 277 | 1.6 | 3.2 | 0.00 | 0.03 | 0.03 | 98 | 1029.3 |
| 20260509223036 | 6 | 285 | 0.0 | 1.6 | 0.00 | 0.03 | 0.03 | 98 | 1029.3 |
| 20260509221539 | 5 | 294 | 0.0 | 1.6 | 0.00 | 0.03 | 0.03 | 98 | 1029.2 |
| 20260509220033 | 3 | 294 | 0.0 | 1.6 | 0.00 | 0.03 | 0.03 | 98 | 1029.1 |
| 20260509214555 | 3 | 292 | 0.0 | 3.2 | 0.00 | 0.03 | 0.03 | 97 | 1029.0 |
| 20260509213038 | 3 | 297 | 0.0 | 3.2 | 0.00 | 0.03 | 0.03 | 97 | 1028.8 |
| 20260509211552 | 2 | 291 | 1.6 | 3.2 | 0.00 | 0.03 | 0.03 | 97 | 1028.6 |
| 20260509210044 | 2 | 291 | 0.0 | 3.2 | 0.00 | 0.03 | 0.03 | 98 | 1028.4 |
| 20260509204549 | 2 | 301 | 0.0 | 1.6 | 0.03 | 0.03 | 0.03 | 97 | 1028.2 |
| 20260509203039 | 2 | 221 | 0.0 | 1.6 | 0.03 | 0.03 | 0.03 | 97 | 1028.0 |
| 20260509201537 | 2 | 319 | 0.0 | 1.6 | 0.03 | 0.03 | 0.03 | 97 | 1027.8 |
| 20260509200019 | 2 | 319 | 0.0 | 1.6 | 0.03 | 0.03 | 0.03 | 97 | 1027.7 |
| 20260509194535 | 2 | 315 | 0.0 | 1.6 | 0.00 | 0.00 | 0.00 | 97 | 1027.5 |
| 20260509193009 | 3 | 301 | 0.0 | 1.6 | 0.00 | 0.00 | 0.00 | 97 | 1027.2 |
| 20260509191521 | 2 | 301 | 0.0 | 1.6 | 0.00 | 0.00 | 0.00 | 97 | 1027.1 |
| 20260509190052 | 2 | 313 | 0.0 | 1.6 | 0.00 | 0.00 | 0.00 | 97 | 1026.9 |
| 20260509184507 | 2 | 313 | 0.0 | 1.6 | 0.00 | 0.00 | 0.00 | 97 | 1026.7 |
| 20260509183050 | 2 | 299 | 0.0 | 1.6 | 0.00 | 0.00 | 0.00 | 97 | 1026.6 |
| 20260509181511 | 3 | 296 | 0.0 | 1.6 | 0.00 | 0.00 | 0.00 | 96 | 1026.5 |
| 20260509174509 | 3 | 303 | 0.0 | 1.6 | 0.00 | 0.00 | 0.00 | 97 | 1026.3 |
| 20260509173059 | 3 | 310 | 0.0 | 1.6 | 0.00 | 0.00 | 0.00 | 96 | 1026.3 |
| 20260509173001 | 3 | 310 | 0.0 | 1.6 | 0.00 | 0.00 | 0.00 | 96 | 1026.3 |
| 20260509171521 | 3 | 310 | 0.0 | 0.0 | 0.00 | 0.00 | 0.00 | 96 | 1026.3 |
| 20260509170101 | 3 | 310 | 0.0 | 1.6 | 0.00 | 0.00 | 0.00 | 96 | 1026.3 |
| 20260509164531 | 3 | 305 | 0.0 | 1.6 | 0.00 | 0.00 | 0.00 | 97 | 1026.4 |
| 20260509163058 | 3 | 305 | 0.0 | 1.6 | 0.00 | 0.00 | 0.00 | 97 | 1026.4 |
| 20260509161512 | 3 | 305 | 0.0 | 0.0 | 0.00 | 0.00 | 0.00 | 96 | 1026.4 |
| 20260509160055 | 4 | 305 | 0.0 | 1.6 | 0.00 | 0.00 | 0.00 | 96 | 1026.3 |
| 20260509154506 | 4 | 305 | 0.0 | 1.6 | 0.00 | 0.00 | 0.00 | 96 | 1026.3 |
| 20260509153102 | 4 | 305 | 0.0 | 1.6 | 0.00 | 0.00 | 0.00 | 96 | 1026.4 |
| 20260509151516 | 4 | 304 | 0.0 | 1.6 | 0.00 | 0.00 | 0.00 | 96 | 1026.4 |
| 20260509150100 | 4 | 304 | 0.0 | 1.6 | 0.00 | 0.00 | 0.00 | 96 | 1026.6 |
| 20260509144530 | 5 | 304 | 0.0 | 1.6 | 0.00 | 0.00 | 0.00 | 96 | 1026.4 |
| 20260509143016 | 5 | 308 | 0.0 | 1.6 | 0.00 | 0.00 | 0.00 | 95 | 1026.4 |
| 20260509141539 | 4 | 298 | 0.0 | 1.6 | 0.00 | 0.00 | 0.00 | 95 | 1026.4 |
| 20260509140013 | 5 | 298 | 0.0 | 0.0 | 0.00 | 0.00 | 0.00 | 95 | 1026.4 |
| 20260509134538 | 5 | 298 | 0.0 | 1.6 | 0.00 | 0.00 | 0.00 | 95 | 1026.4 |
| 20260509133023 | 5 | 298 | 0.0 | 1.6 | 0.00 | 0.00 | 0.00 | 94 | 1026.3 |
| 20260509131544 | 6 | 298 | 0.0 | 1.6 | 0.00 | 0.00 | 0.00 | 95 | 1026.3 |
| 20260509130029 | 5 | 297 | 0.0 | 1.6 | 0.00 | 0.00 | 0.00 | 95 | 1026.3 |
| 20260509124557 | 5 | 298 | 0.0 | 1.6 | 0.00 | 0.00 | 0.00 | 94 | 1026.4 |
| 20260509123049 | 5 | 297 | 0.0 | 0.0 | 0.00 | 0.00 | 0.00 | 94 | 1026.4 |
| 20260509121504 | 6 | 297 | 0.0 | 1.6 | 0.00 | 0.00 | 0.00 | 93 | 1026.4 |
| 20260509114511 | 6 | 301 | 0.0 | 1.6 | 0.00 | 0.00 | 0.00 | 93 | 1026.4 |
| 20260509113003 | 6 | 350 | 0.0 | 0.0 | 0.00 | 0.00 | 0.00 | 92 | 1026.3 |
| 20260509111522 | 6 | 350 | 0.0 | 0.0 | 0.00 | 0.00 | 0.00 | 92 | 1026.2 |
| 20260509110010 | 6 | 350 | 0.0 | 0.0 | 0.00 | 0.00 | 0.00 | 91 | 1026.1 |
| 20260509104525 | 7 | 350 | 0.0 | 0.0 | 0.00 | 0.00 | 0.00 | 89 | 1026.0 |
| 20260509103023 | 7 | 333 | 0.0 | 1.6 | 0.00 | 0.00 | 0.00 | 90 | 1025.9 |
| 20260509101551 | 8 | 323 | 0.0 | 0.0 | 0.00 | 0.00 | 0.00 | 87 | 1025.8 |
| 20260509100035 | 8 | 323 | 0.0 | 1.6 | 0.00 | 0.00 | 0.00 | 86 | 1025.7 |